Weather History for KCVG - August, 2014

Change the Weather History Date:

Saturday, August 30, 2014

  Actual Average Record
Temperature  
Mean Temperature 78 °F 73 °F  
Max Temperature 87 °F 84 °F 96 °F (1962)
Min Temperature 69 °F 63 °F 45 °F (1915)
Degree Days  
Heating Degree Days 0 0  
Month to date heating degree days 0 0  
Since 1 June heating degree days 8 15  
Since 1 July heating degree days 5 0  
Cooling Degree Days 13 8  
Month to date cooling degree days 310 301  
Year to date cooling degree days 935 960  
Since 1 June cooling degree days 801 866  
Growing Degree Days 28 (Base 50)    
Moisture  
Dew Point 67 °F    
Average Humidity 73    
Maximum Humidity 90    
Minimum Humidity 55    
Precipitation  
Precipitation 0.13 in 0.10 in 2.99 in (2005)
Month to date precipitation 3.91 3.31  
Year to date precipitation 30.43 29.69  
Snow  
Snow 0.00 in 0.00 in - ()
Month to date snowfall 0.0 0.0  
Since 1 June snowfall 0.0 0.0  
Since 1 July snowfall 0.0 0.0  
Snow Depth 0.00 in    
Sea Level Pressure  
Sea Level Pressure 30.03 in    
Wind  
Wind Speed 7 mph (South)    
Max Wind Speed 15 mph    
Max Gust Speed 21 mph    
Visibility 7 miles    
Events Rain , Thunderstorm    
T = Trace of Precipitation, MM = Missing Value Source: NWS Daily Summary

Daily Weather History Graph

Daily Weather History Graph

Search for Another Location

Airport or City:

Trip Planner

Search our weather history database for the weather conditions in past years. The results will help you decide how hot, cold, wet, or windy it might be!

Date:

Astronomy

Aug. 30, 2014 Rise Set
Actual Time 7:05 AM EDT 8:12 PM EDT
Civil Twilight 6:38 AM EDT 8:39 PM EDT
Nautical Twilight 6:05 AM EDT 9:12 PM EDT
Astronomical Twilight 5:31 AM EDT 9:46 PM EDT
Moon 11:49 AM EDT (8/30) 10:48 PM EDT (8/30)
Length of Visible Light 14h 01m
Length of Day
13h 06m
Waxing Crescent, 23% of the Moon is Illuminated
Aug 30
Waxing Crescent
Sep 2
First Quarter
Sep 8
Full
Sep 15
Last Quarter
Sep 24
New

Hourly Weather History & Observations

Time (EDT) Temp. Heat Index Dew Point Humidity Pressure Visibility Wind Dir Wind Speed Gust Speed Precip Events Conditions
12:52 AM 73.9 °F - 68.0 °F 82% 30.03 in 9.0 mi SSE 5.8 mph - N/A   Clear
1:52 AM 73.0 °F - 68.0 °F 84% 30.02 in 8.0 mi South 5.8 mph - N/A   Clear
2:52 AM 72.0 °F - 68.0 °F 87% 30.01 in 8.0 mi South 5.8 mph - N/A   Clear
3:52 AM 71.6 °F - 66.2 °F 83% 30.04 in 8.0 mi South 5.8 mph - N/A   Clear
4:52 AM 70.0 °F - 66.0 °F 87% 30.01 in 8.0 mi South 6.9 mph - N/A   Clear
5:52 AM 72.0 °F - 66.0 °F 81% 30.02 in 8.0 mi South 8.1 mph - N/A   Partly Cloudy
6:52 AM 71.1 °F - 64.9 °F 81% 30.02 in 10.0 mi South 6.9 mph - N/A   Mostly Cloudy
7:52 AM 72.0 °F - 64.9 °F 78% 30.03 in 10.0 mi South 8.1 mph - N/A   Mostly Cloudy
8:52 AM 75.0 °F - 64.9 °F 71% 30.03 in 10.0 mi South 10.4 mph - N/A   Overcast
9:52 AM 78.1 °F - 64.9 °F 64% 30.03 in 10.0 mi South 9.2 mph - N/A   Mostly Cloudy
10:52 AM 81.0 °F 82.5 °F 64.0 °F 56% 30.04 in 10.0 mi SW 10.4 mph - N/A   Mostly Cloudy
11:52 AM 82.4 °F 83.9 °F 64.4 °F 54% 30.08 in 10.0 mi Variable 6.9 mph - N/A   Overcast
12:52 PM 82.9 °F 85.0 °F 66.0 °F 56% 30.04 in 10.0 mi South 9.2 mph - N/A   Mostly Cloudy
1:52 PM 84.9 °F 87.1 °F 66.0 °F 53% 30.03 in 10.0 mi South 9.2 mph - N/A   Mostly Cloudy
2:52 PM 84.9 °F 87.1 °F 66.0 °F 53% 30.03 in 10.0 mi SW 6.9 mph - N/A   Mostly Cloudy
3:52 PM 84.9 °F 87.1 °F 66.0 °F 53% 29.99 in 8.0 mi SW 8.1 mph - N/A   Mostly Cloudy
4:52 PM 82.9 °F 85.4 °F 66.9 °F 58% 29.99 in 7.0 mi SSW 5.8 mph - N/A   Overcast
5:21 PM 78.8 °F - 69.8 °F 74% 30.03 in 4.0 mi SSW 11.5 mph - 0.01 in Rain , Thunderstorm Light Thunderstorms and Rain
5:45 PM 75.2 °F - 71.6 °F 89% 30.04 in 4.0 mi South 11.5 mph 20.7 mph 0.06 in Rain Rain
5:52 PM 75.0 °F - 70.0 °F 84% 30.01 in 4.0 mi South 9.2 mph - 0.07 in Rain Light Rain
6:19 PM 73.4 °F - 69.8 °F 88% 30.04 in 2.5 mi South 9.2 mph - 0.05 in Rain Rain
6:25 PM 73.4 °F - 69.8 °F 88% 30.04 in 3.0 mi South 6.9 mph - 0.05 in Rain Light Rain
6:52 PM 73.9 °F - 70.0 °F 87% 30.01 in 3.0 mi South 8.1 mph - 0.06 in Rain Light Rain
7:52 PM 73.0 °F - 70.0 °F 90% 30.01 in 4.0 mi South 5.8 mph - 0.00 in   Overcast
8:52 PM 72.0 °F - 69.1 °F 91% 30.02 in 5.0 mi South 4.6 mph - 0.00 in Rain Light Rain
9:52 PM 72.0 °F - 69.1 °F 91% 30.03 in 5.0 mi SSW 4.6 mph - 0.00 in   Overcast
10:52 PM 71.6 °F - 68.0 °F 88% 30.05 in 6.0 mi SSW 5.8 mph - N/A   Overcast
11:52 PM 71.1 °F - 68.0 °F 90% 30.02 in 4.0 mi South 9.2 mph - N/A   Overcast